Volver al catálogo

COSMOS 1275 DEB

ActivoPO
NORAD 12658·DEBRIS·🇷🇺 Russia

Lanzado Jun 4, 1981 desde Plesetsk Cosmodrome

Loading…

Próximos Pases (próximas 24 horas)

TLE

ActualizadoSource: Space-Track

Época: Sep 14, 2026, 10:48 UTC

1 12658U 81053N   26257.45058639  .00001740  00000-0  65487-3 0  9996
2 12658  82.9655  70.0196 0033605 162.4868 226.5475 14.30709017303003

Sigue COSMOS 1275 DEB en tiempo real con AllMySat

Download on the App Store